EW2310 Weather Reports


time (UTC)temp
C
wind
direction
speed
KPH
gust
KPH
rain 1hr
cm
rain 24hr
cm
rain mn
cm
humidity
%
barometer
mb
20260504033546 12 317 1.6 4.8 0.00 0.00 0.00 81 1017.3
20260504033043 12 316 1.6 4.8 0.00 0.00 0.00 82 1017.4
20260504032546 12 316 3.2 3.2 0.00 0.00 0.00 83 1017.4
20260504032043 12 316 0.0 3.2 0.00 0.00 0.00 83 1017.4
20260504031543 12 316 1.6 3.2 0.00 0.00 0.00 83 1017.4
20260504031043 13 316 0.0 3.2 0.00 0.00 0.00 82 1017.4
20260504030543 13 316 1.6 1.6 0.00 0.00 0.00 82 1017.3
20260504030043 13 316 0.0 0.0 0.00 0.00 0.00 82 1017.4
20260504025546 13 316 0.0 0.0 0.00 0.00 0.00 82 1017.3
20260504025043 13 316 0.0 1.6 0.00 0.00 0.00 81 1017.4
20260504024546 13 316 0.0 1.6 0.00 0.00 0.00 81 1017.3
20260504024043 13 316 0.0 1.6 0.00 0.00 0.00 82 1017.4
20260504023543 13 316 0.0 0.0 0.00 0.00 0.00 82 1017.3
20260504023043 13 316 0.0 0.0 0.00 0.00 0.00 82 1017.4
20260504022543 13 316 0.0 0.0 0.00 0.00 0.00 81 1017.3
20260504022043 13 316 0.0 0.0 0.00 0.00 0.00 81 1017.3
20260504021543 13 316 0.0 0.0 0.00 0.00 0.00 81 1017.3
20260504021044 14 316 0.0 0.0 0.00 0.00 0.00 81 1017.3
20260504020543 14 316 0.0 0.0 0.00 0.00 0.00 81 1017.3
20260504020044 14 316 0.0 0.0 0.00 0.00 0.00 81 1017.3
20260504015543 14 316 0.0 0.0 0.00 0.00 0.00 81 1017.4
20260504015043 14 316 0.0 0.0 0.00 0.00 0.00 81 1017.4
20260504014543 14 316 0.0 0.0 0.00 0.00 0.00 80 1017.4
20260504014046 14 316 0.0 0.0 0.00 0.00 0.00 80 1017.3
20260504013543 14 316 0.0 0.0 0.00 0.00 0.00 80 1017.4
20260504013043 14 316 0.0 3.2 0.00 0.00 0.00 81 1017.3
20260504012543 14 316 1.6 3.2 0.00 0.00 0.00 82 1017.3
20260504012043 13 316 0.0 0.0 0.00 0.00 0.00 82 1017.3
20260504011546 13 316 0.0 0.0 0.00 0.00 0.00 81 1017.3
20260504011043 13 316 0.0 0.0 0.00 0.00 0.00 81 1017.4
20260504010543 13 316 0.0 0.0 0.00 0.00 0.00 81 1017.4
20260504010043 13 316 0.0 0.0 0.00 0.00 0.00 81 1017.4
20260504005543 14 316 0.0 0.0 0.00 0.00 0.00 80 1017.4
20260504005043 14 316 0.0 0.0 0.00 0.00 0.00 80 1017.5
20260504004543 14 316 0.0 0.0 0.00 0.00 0.00 80 1017.5
20260504004043 14 316 0.0 0.0 0.00 0.00 0.00 80 1017.4
20260504003543 14 316 0.0 0.0 0.00 0.00 0.00 80 1017.5
20260504003046 14 316 0.0 0.0 0.00 0.00 0.00 80 1017.5
20260504002546 14 316 0.0 0.0 0.00 0.00 0.00 80 1017.4
20260504002043 14 316 0.0 0.0 0.00 0.00 0.00 79 1017.4
20260504001546 14 316 0.0 3.2 0.00 0.00 0.00 80 1017.4
20260504001046 14 316 1.6 3.2 0.00 0.00 0.00 80 1017.4
20260504000546 14 316 0.0 4.8 0.00 0.00 0.00 79 1017.4
20260504000043 15 316 0.0 3.2 0.00 0.00 0.00 79 1017.4
20260503235543 15 316 0.0 3.2 0.00 0.00 0.00 79 1017.5
20260503235043 15 316 1.6 6.4 0.00 0.00 0.00 79 1017.5
20260503234543 15 309 4.8 4.8 0.00 0.00 0.00 79 1017.6
20260503234043 15 309 0.0 4.8 0.00 0.00 0.00 79 1017.7
20260503233543 15 309 1.6 4.8 0.00 0.00 0.00 79 1017.7
20260503233043 15 309 3.2 4.8 0.00 0.00 0.00 79 1017.8
20260503232543 15 309 0.0 1.6 0.00 0.00 0.00 79 1017.9
20260503232043 15 309 0.0 1.6 0.00 0.00 0.00 79 1018.0
20260503231546 15 309 0.0 1.6 0.00 0.00 0.00 79 1018.1
20260503231043 15 309 0.0 0.0 0.00 0.00 0.00 79 1018.1
20260503230543 15 309 0.0 1.6 0.00 0.00 0.00 79 1018.1
20260503230043 15 309 0.0 0.0 0.00 0.00 0.00 79 1018.1
20260503225543 15 309 0.0 0.0 0.00 0.00 0.00 79 1018.1
20260503225043 15 309 0.0 0.0 0.00 0.00 0.00 78 1018.2
20260503224543 15 309 0.0 1.6 0.00 0.00 0.00 78 1018.3
20260503224043 15 309 0.0 0.0 0.00 0.00 0.00 78 1018.3
20260503223543 15 309 0.0 1.6 0.00 0.00 0.00 78 1018.3
20260503223046 15 309 0.0 0.0 0.00 0.00 0.00 78 1018.4
20260503222546 15 309 0.0 1.6 0.00 0.00 0.00 78 1018.3
20260503222043 15 309 1.6 1.6 0.00 0.00 0.00 78 1018.4
20260503221543 15 309 0.0 1.6 0.00 0.00 0.00 78 1018.4
20260503221043 15 309 0.0 0.0 0.00 0.00 0.00 78 1018.4
20260503220543 15 309 0.0 0.0 0.00 0.00 0.00 78 1018.4
20260503220043 15 309 0.0 3.2 0.00 0.00 0.00 78 1018.3
20260503215543 15 309 0.0 4.8 0.00 0.00 0.00 78 1018.3
20260503215043 15 309 4.8 4.8 0.00 0.00 0.00 77 1018.2
20260503214543 15 308 3.2 4.8 0.00 0.00 0.00 76 1018.3
20260503214046 16 308 0.0 1.6 0.00 0.00 0.00 76 1018.2
20260503213543 16 308 1.6 3.2 0.00 0.00 0.00 76 1018.2
20260503213043 16 308 3.2 3.2 0.00 0.00 0.00 76 1018.1
20260503212543 16 308 1.6 4.8 0.00 0.00 0.00 76 1018.1
20260503212043 16 308 0.0 3.2 0.00 0.00 0.00 76 1018.1
20260503211543 16 308 0.0 4.8 0.00 0.00 0.00 75 1018.1
20260503211043 16 308 0.0 3.2 0.00 0.00 0.00 75 1018.1
20260503210543 16 308 3.2 4.8 0.00 0.00 0.00 75 1018.1
20260503210043 16 307 0.0 1.6 0.00 0.00 0.00 75 1018.2
20260503205543 16 307 0.0 4.8 0.00 0.00 0.00 75 1018.2
20260503205043 16 307 4.8 4.8 0.00 0.00 0.00 76 1018.1
20260503204543 16 304 0.0 4.8 0.00 0.00 0.00 75 1018.1
20260503204043 16 290 0.0 3.2 0.00 0.00 0.00 76 1018.1
20260503203543 16 288 0.0 4.8 0.00 0.00 0.00 76 1018.1
20260503203046 16 273 0.0 3.2 0.00 0.00 0.00 75 1018.1
20260503202543 16 277 1.6 1.6 0.00 0.00 0.00 75 1018.2
20260503202043 16 270 1.6 3.2 0.00 0.00 0.00 75 1018.1
20260503201543 16 270 1.6 4.8 0.00 0.00 0.00 75 1018.1
20260503201043 16 290 0.0 1.6 0.00 0.00 0.00 75 1018.1
20260503200543 16 290 1.6 3.2 0.00 0.00 0.00 75 1018.1
20260503200043 16 290 1.6 3.2 0.00 0.00 0.00 75 1018.0
20260503195543 16 293 0.0 3.2 0.00 0.00 0.00 74 1018.0
20260503195043 16 292 0.0 4.8 0.00 0.00 0.00 74 1018.0
20260503194543 16 309 0.0 3.2 0.00 0.00 0.00 74 1017.9
20260503194043 16 309 0.0 1.6 0.00 0.00 0.00 74 1017.9
20260503193543 16 309 0.0 3.2 0.00 0.00 0.00 74 1017.9
20260503193043 16 312 0.0 3.2 0.00 0.00 0.00 74 1017.8
20260503192543 16 315 0.0 4.8 0.00 0.00 0.00 74 1017.8
20260503192043 16 315 3.2 3.2 0.00 0.00 0.00 74 1017.7
20260503191546 16 308 0.0 1.6 0.00 0.00 0.00 74 1017.7
20260503191043 16 308 0.0 3.2 0.00 0.00 0.00 74 1017.7
20260503190546 16 308 0.0 1.6 0.00 0.00 0.00 74 1017.6
20260503190043 16 308 0.0 1.6 0.00 0.00 0.00 73 1017.5
20260503185543 16 308 0.0 1.6 0.00 0.00 0.00 73 1017.5
20260503185046 16 308 0.0 3.2 0.00 0.00 0.00 73 1017.4
20260503184543 16 317 0.0 6.4 0.00 0.00 0.00 73 1017.4
20260503184043 16 291 0.0 1.6 0.00 0.00 0.00 73 1017.4
20260503183543 16 292 0.0 3.2 0.00 0.00 0.00 73 1017.4
20260503183046 16 292 0.0 3.2 0.00 0.00 0.00 73 1017.3
20260503182543 17 289 1.6 4.8 0.00 0.00 0.00 73 1017.4
20260503182043 17 206 0.0 4.8 0.00 0.00 0.00 73 1017.4
20260503181543 17 248 4.8 9.7 0.00 0.00 0.00 73 1017.3
20260503181046 17 236 0.0 4.8 0.00 0.00 0.00 72 1017.3
20260503180543 17 5 0.0 6.4 0.00 0.00 0.00 72 1017.2
20260503180043 17 255 1.6 6.4 0.00 0.00 0.00 72 1017.2
20260503175543 17 309 1.6 6.4 0.00 0.00 0.00 71 1017.2
20260503175046 17 217 1.6 9.7 0.00 0.00 0.00 71 1017.2
20260503174543 17 300 3.2 6.4 0.00 0.00 0.00 70 1017.2
20260503174043 17 49 1.6 11.3 0.00 0.00 0.00 70 1017.2
20260503173543 17 15 4.8 11.3 0.00 0.00 0.00 70 1017.1
20260503173043 17 0 3.2 12.9 0.00 0.00 0.00 70 1017.1
20260503172543 17 65 3.2 16.1 0.00 0.00 0.00 70 1017.1
20260503172043 17 114 4.8 8.0 0.00 0.00 0.00 69 1016.9
20260503171543 17 51 4.8 12.9 0.00 0.00 0.00 69 1016.8
20260503171046 18 32 1.6 11.3 0.00 0.00 0.00 68 1016.8
20260503170546 18 0 3.2 11.3 0.00 0.00 0.00 67 1016.7
20260503150546 20 300 1.6 9.7 0.00 0.00 0.00 61 1017.2
20260503131043 20 36 9.7 16.1 0.00 0.00 0.00 61 1018.4
20260503130543 20 355 4.8 14.5 0.00 0.00 0.00 61 1018.5
20260503110543 20 31 4.8 8.0 0.00 0.00 0.00 52 1018.5
20260503081543 18 302 1.6 11.3 0.00 0.00 0.00 61 1019.3
20260503081043 17 317 6.4 16.1 0.00 0.00 0.00 62 1019.3
20260503080543 17 0 6.4 12.9 0.00 0.00 0.00 63 1019.4
20260503072546 17 311 4.8 16.1 0.00 0.00 0.00 68 1019.6
20260503072046 17 246 1.6 11.3 0.00 0.00 0.00 69 1019.6
20260503071543 17 355 1.6 16.1 0.00 0.00 0.00 70 1019.5
20260503071046 17 323 4.8 9.7 0.00 0.00 0.00 71 1019.5
20260503070543 16 305 8.0 14.5 0.00 0.00 0.00 72 1019.5
20260503055043 15 346 1.6 8.0 0.00 0.00 0.00 75 1019.4
20260503054543 15 331 3.2 8.0 0.00 0.00 0.00 75 1019.4
20260503054043 15 319 6.4 9.7 0.00 0.00 0.00 74 1019.3
20260503053543 16 294 1.6 3.2 0.00 0.00 0.00 75 1019.4
20260503053043 15 294 1.6 3.2 0.00 0.00 0.00 76 1019.3
20260503052543 15 294 1.6 3.2 0.00 0.00 0.00 76 1019.3
20260503052043 15 294 0.0 1.6 0.00 0.00 0.00 77 1019.3
20260503051543 15 294 0.0 1.6 0.00 0.00 0.00 77 1019.3
20260503051043 15 294 0.0 0.0 0.00 0.00 0.00 77 1019.3
20260503050543 14 294 0.0 1.6 0.00 0.00 0.00 78 1019.1
20260503050043 14 294 0.0 1.6 0.00 0.00 0.00 79 1019.1
20260503045543 13 294 0.0 3.2 0.00 0.00 0.00 79 1019.1
20260503045043 13 294 0.0 3.2 0.00 0.00 0.00 79 1019.1
20260503044542 13 294 0.0 1.6 0.00 0.00 0.00 79 1019.1
20260503044043 13 294 0.0 1.6 0.00 0.00 0.00 79 1019.1
20260503043543 13 294 0.0 1.6 0.00 0.00 0.00 79 1019.0
20260503043043 13 294 0.0 3.2 0.00 0.00 0.00 79 1019.1
20260503042543 13 294 3.2 4.8 0.00 0.00 0.00 79 1019.1
20260503042043 13 275 3.2 4.8 0.00 0.00 0.00 79 1019.0
20260503041543 13 274 0.0 3.2 0.00 0.00 0.00 79 1019.1
20260503041043 13 274 4.8 6.4 0.00 0.00 0.00 79 1019.1
20260503040543 13 264 4.8 6.4 0.00 0.00 0.00 80 1019.1
20260503040042 13 264 3.2 3.2 0.00 0.00 0.00 79 1019.1
20260503035543 13 264 0.0 1.6 0.00 0.00 0.00 79 1019.1
20260503035042 13 264 0.0 4.8 0.00 0.00 0.00 79 1019.1
20260503034543 13 264 0.0 1.6 0.00 0.00 0.00 79 1019.1
20260503034043 13 264 0.0 3.2 0.00 0.00 0.00 79 1019.0